TimeEDT,TemperatureF,Dew PointF,Humidity,Sea Level PressureIn,VisibilityMPH,Wind Direction,Wind SpeedMPH,Gust SpeedMPH,PrecipitationIn,Events,Conditions,WindDirDegrees,DateUTC
12:15 AM,39.2,10.4,31,30.04,10.0,WNW,10.4,20.7,N/A,,Clear,290,2013-03-20 04:15:00
12:35 AM,37.4,10.4,33,30.04,10.0,West,4.6,-,N/A,,Clear,280,2013-03-20 04:35:00
12:55 AM,37.4,10.4,33,30.04,10.0,West,4.6,-,N/A,,Clear,270,2013-03-20 04:55:00
1:15 AM,37.4,10.4,33,30.05,10.0,West,4.6,-,N/A,,Clear,280,2013-03-20 05:15:00
1:35 AM,37.4,10.4,33,30.05,10.0,West,5.8,-,N/A,,Clear,280,2013-03-20 05:35:00
1:55 AM,35.6,12.2,38,30.05,10.0,West,5.8,-,N/A,,Clear,260,2013-03-20 05:55:00
2:15 AM,35.6,12.2,38,30.05,10.0,West,5.8,-,N/A,,Clear,280,2013-03-20 06:15:00
2:35 AM,35.6,12.2,38,30.04,10.0,West,9.2,-,N/A,,Clear,280,2013-03-20 06:35:00
2:55 AM,35.6,12.2,38,30.04,10.0,West,9.2,-,N/A,,Clear,280,2013-03-20 06:55:00
3:15 AM,35.6,12.2,38,30.04,10.0,WNW,12.7,19.6,N/A,,Clear,290,2013-03-20 07:15:00
3:35 AM,35.6,14.0,41,30.04,10.0,West,8.1,-,N/A,,Clear,280,2013-03-20 07:35:00
3:55 AM,35.6,12.2,38,30.03,10.0,West,8.1,-,N/A,,Clear,280,2013-03-20 07:55:00
4:15 AM,35.6,12.2,38,30.03,10.0,West,8.1,-,N/A,,Clear,280,2013-03-20 08:15:00
4:35 AM,33.8,14.0,44,30.02,10.0,West,5.8,-,N/A,,Clear,280,2013-03-20 08:35:00
4:55 AM,33.8,15.8,48,30.02,10.0,West,5.8,-,N/A,,Clear,270,2013-03-20 08:55:00
5:15 AM,33.8,15.8,48,30.02,10.0,West,6.9,-,N/A,,Clear,280,2013-03-20 09:15:00
5:35 AM,33.8,15.8,48,30.02,10.0,West,5.8,-,N/A,,Clear,280,2013-03-20 09:35:00
5:55 AM,32.0,15.8,51,30.02,10.0,West,4.6,-,N/A,,Clear,260,2013-03-20 09:55:00
6:15 AM,32.0,15.8,51,30.03,10.0,West,4.6,-,N/A,,Clear,270,2013-03-20 10:15:00
6:35 AM,30.2,15.8,55,30.03,10.0,Calm,Calm,-,N/A,,Clear,0,2013-03-20 10:35:00
6:55 AM,30.2,15.8,55,30.03,10.0,Calm,Calm,-,N/A,,Clear,0,2013-03-20 10:55:00
7:15 AM,30.2,15.8,55,30.03,10.0,West,3.5,-,N/A,,Clear,270,2013-03-20 11:15:00
7:35 AM,28.4,17.6,64,30.04,10.0,Calm,Calm,-,N/A,,Clear,0,2013-03-20 11:35:00
7:55 AM,30.2,17.6,60,30.04,10.0,Calm,Calm,-,N/A,,Clear,0,2013-03-20 11:55:00
8:15 AM,32.0,17.6,55,30.05,10.0,WNW,4.6,-,N/A,,Clear,290,2013-03-20 12:15:00
8:35 AM,33.8,15.8,48,30.05,10.0,WNW,5.8,-,N/A,,Clear,290,2013-03-20 12:35:00
8:55 AM,35.6,17.6,48,30.05,10.0,West,8.1,-,N/A,,Clear,280,2013-03-20 12:55:00
9:15 AM,37.4,17.6,45,30.06,10.0,West,9.2,-,N/A,,Clear,280,2013-03-20 13:15:00
9:35 AM,37.4,15.8,41,30.06,10.0,WNW,12.7,18.4,N/A,,Clear,300,2013-03-20 13:35:00
9:55 AM,37.4,15.8,41,30.06,10.0,West,8.1,16.1,N/A,,Clear,280,2013-03-20 13:55:00
10:15 AM,39.2,17.6,42,30.05,10.0,West,6.9,-,N/A,,Clear,260,2013-03-20 14:15:00
10:35 AM,39.2,17.6,42,30.05,10.0,WNW,5.8,-,N/A,,Clear,290,2013-03-20 14:35:00
10:55 AM,41.0,17.6,39,30.04,10.0,WSW,6.9,-,N/A,,Clear,240,2013-03-20 14:55:00
11:15 AM,42.8,17.6,36,30.04,10.0,West,4.6,-,N/A,,Clear,270,2013-03-20 15:15:00
11:55 AM,44.6,19.4,37,30.02,10.0,West,6.9,-,N/A,,Clear,280,2013-03-20 15:55:00
12:15 PM,44.6,17.6,34,30.01,10.0,WSW,8.1,17.3,N/A,,Clear,250,2013-03-20 16:15:00
12:35 PM,44.6,17.6,34,30.00,10.0,WSW,10.4,17.3,N/A,,Clear,250,2013-03-20 16:35:00
12:55 PM,46.4,19.4,34,29.98,10.0,West,13.8,21.9,N/A,,Clear,270,2013-03-20 16:55:00
1:15 PM,46.4,17.6,32,29.97,10.0,West,13.8,20.7,N/A,,Clear,280,2013-03-20 17:15:00
1:35 PM,48.2,19.4,32,29.95,10.0,West,10.4,17.3,N/A,,Clear,260,2013-03-20 17:35:00
1:55 PM,48.2,19.4,32,29.94,10.0,WSW,10.4,24.2,N/A,,Clear,240,2013-03-20 17:55:00
2:15 PM,48.2,17.6,30,29.93,10.0,WSW,9.2,21.9,N/A,,Clear,240,2013-03-20 18:15:00
2:35 PM,50.0,17.6,28,29.90,10.0,West,11.5,19.6,N/A,,Clear,270,2013-03-20 18:35:00
2:55 PM,50.0,17.6,28,29.89,10.0,WSW,15.0,25.3,N/A,,Scattered Clouds,250,2013-03-20 18:55:00
3:15 PM,48.2,15.8,27,29.88,10.0,West,13.8,21.9,N/A,,Scattered Clouds,260,2013-03-20 19:15:00
3:35 PM,48.2,17.6,30,29.86,10.0,West,10.4,21.9,N/A,,Scattered Clouds,280,2013-03-20 19:35:00
3:55 PM,48.2,17.6,30,29.86,10.0,WNW,10.4,25.3,N/A,,Scattered Clouds,290,2013-03-20 19:55:00
4:15 PM,48.2,17.6,30,29.84,10.0,West,12.7,23.0,N/A,,Scattered Clouds,260,2013-03-20 20:15:00
4:35 PM,48.2,15.8,27,29.83,10.0,West,9.2,20.7,N/A,,Scattered Clouds,280,2013-03-20 20:35:00
4:55 PM,50.0,15.8,26,29.82,10.0,WSW,12.7,23.0,N/A,,Scattered Clouds,240,2013-03-20 20:55:00
5:15 PM,48.2,15.8,27,29.82,10.0,West,13.8,20.7,N/A,,Scattered Clouds,260,2013-03-20 21:15:00
5:35 PM,48.2,15.8,27,29.81,10.0,WSW,11.5,18.4,N/A,,Clear,240,2013-03-20 21:35:00
5:55 PM,48.2,15.8,27,29.80,10.0,WSW,12.7,21.9,N/A,,Scattered Clouds,250,2013-03-20 21:55:00
6:15 PM,48.2,15.8,27,29.80,10.0,WSW,12.7,26.5,N/A,,Scattered Clouds,240,2013-03-20 22:15:00
6:35 PM,46.4,15.8,29,29.80,10.0,West,11.5,19.6,N/A,,Scattered Clouds,260,2013-03-20 22:35:00
6:55 PM,46.4,15.8,29,29.80,10.0,WSW,8.1,17.3,N/A,,Scattered Clouds,250,2013-03-20 22:55:00
7:15 PM,44.6,15.8,31,29.80,10.0,SW,9.2,-,N/A,,Clear,230,2013-03-20 23:15:00
7:35 PM,44.6,15.8,31,29.80,10.0,WSW,4.6,-,N/A,,Scattered Clouds,250,2013-03-20 23:35:00
7:55 PM,42.8,17.6,36,29.80,10.0,Calm,Calm,-,N/A,,Mostly Cloudy,0,2013-03-20 23:55:00
8:15 PM,42.8,17.6,36,29.80,10.0,WSW,4.6,-,N/A,,Mostly Cloudy,250,2013-03-21 00:15:00
8:35 PM,42.8,17.6,36,29.80,10.0,WSW,5.8,-,N/A,,Mostly Cloudy,250,2013-03-21 00:35:00
8:55 PM,41.0,17.6,39,29.79,10.0,WSW,3.5,-,N/A,,Scattered Clouds,250,2013-03-21 00:55:00
9:15 PM,41.0,17.6,39,29.79,10.0,West,4.6,-,N/A,,Clear,260,2013-03-21 01:15:00
9:35 PM,39.2,17.6,42,29.79,10.0,West,3.5,-,N/A,,Clear,260,2013-03-21 01:35:00
9:55 PM,39.2,19.4,45,29.79,10.0,WNW,5.8,-,N/A,,Mostly Cloudy,300,2013-03-21 01:55:00
10:15 PM,41.0,17.6,39,29.80,10.0,West,5.8,-,N/A,,Overcast,280,2013-03-21 02:15:00
10:35 PM,41.0,23.0,49,29.80,10.0,WNW,11.5,17.3,N/A,,Overcast,290,2013-03-21 02:35:00
10:55 PM,37.4,28.4,70,29.80,10.0,NW,10.4,21.9,N/A,,Scattered Clouds,310,2013-03-21 02:55:00
11:15 PM,37.4,28.4,70,29.81,10.0,WNW,8.1,16.1,N/A,,Clear,290,2013-03-21 03:15:00
11:35 PM,35.6,32.0,87,29.82,7.0,WNW,12.7,18.4,N/A,Snow,Light Snow,290,2013-03-21 03:35:00
11:55 PM,33.8,32.0,93,29.83,2.0,WNW,13.8,25.3,N/A,Snow,Light Snow,300,2013-03-21 03:55:00